Stations météo

Publicité
Tarbes/Ossun, France (7621): Température de l'air & dewpoint: 12.12.2017 21:00:00 - 18.12.2017 21:00:00 (CET)Tarbes/Ossun, France (7621): Température de l'air 5cm: 12.12.2017 21:00:00 - 18.12.2017 21:00:00 (CET)Tarbes/Ossun, France (7621): Température de l'air -20cm & Température de l'air -100cm: 12.12.2017 21:00:00 - 18.12.2017 21:00:00 (CET)Tarbes/Ossun, France (7621): Vitesse du vent & gusts: 12.12.2017 21:00:00 - 18.12.2017 21:00:00 (CET)Tarbes/Ossun, France (7621): Direction du vent: 12.12.2017 21:00:00 - 18.12.2017 21:00:00 (CET)Tarbes/Ossun, France (7621): reduced air pressure: 12.12.2017 21:00:00 - 18.12.2017 21:00:00 (CET)Tarbes/Ossun, France (7621): visibility: 12.12.2017 21:00:00 - 18.12.2017 21:00:00 (CET)Tarbes/Ossun, France (7621): Ensoleillement: 12.12.2017 21:00:00 - 18.12.2017 21:00:00 (CET)Tarbes/Ossun, France (7621): Quantités de précipitations: 12.12.2017 21:00:00 - 18.12.2017 21:00:00 (CET)
Date & Time tt [°C] td [°C] tt 5cm [°C] tt -20cm [°C] tt -100cm [°C] ff [km/h] ff [knt] fx [km/h] fx [knt] dd ppp [hPa] vv [km] sd [min] rr [mm]
18.12.2017 21:00:00 8,8 7,7 7,3 6,8 9,6 10 5 19 10 W 1027,9 36 0 0,0
18.12.2017 20:00:00 8,5 7,4 7,3 6,7 9,6 13 7 35 19 NW 1027,1 10 0 0,0
18.12.2017 19:00:00 9,1 8,0 8,1 6,6 9,6 18 10 55 30 W 1026,4 10 0 0,4
18.12.2017 18:00:00 8,7 7,6 7,8 6,6 9,6 29 16 52 28 W 1025,2 6 0 0,2
18.12.2017 17:00:00 8,4 7,2 7,7 6,5 9,6 30 16 51 27 WSW 1025,6 8 0 0,6
18.12.2017 16:00:00 8,4 7,0 8,0 6,4 9,6 28 15 56 31 WSW 1026,0 9 0 0,2
18.12.2017 15:00:00 8,5 6,5 8,0 6,4 9,6 32 17 54 29 WSW 1026,3 17 0 0,0
18.12.2017 14:00:00 8,0 6,5 7,8 6,3 9,6 28 15 47 25 SW 1027,8 10 0 0,2
18.12.2017 13:00:00 7,7 6,2 7,6 6,3 9,6 25 13 48 26 WSW 1029,8 10 0 0,4
18.12.2017 12:00:00 8,2 5,1 7,6 6,3 9,6 29 16 44 24 W 1030,6 12 0 0,0
18.12.2017 11:00:00 8,3 4,3 7,0 6,2 9,6 18 10 35 19 W 1030,7 56 0 0,0
18.12.2017 10:00:00 7,0 3,2 3,3 6,3 9,6 19 10 33 18 WSW 1031,1 60 0 0,0
18.12.2017 09:00:00 4,0 1,9 2,8 6,3 9,6 13 7 30 16 SSW 1031,8 10 0 0,0
18.12.2017 08:00:00 4,1 1,8 2,6 6,4 9,6 22 12 31 17 SSW 1033,1 10 0 0,0
18.12.2017 07:00:00 4,4 2,6 3,2 6,4 9,6 16 9 19 10 S 1033,5 10 0 0,0
18.12.2017 06:00:00 3,9 1,9 1,4 6,4 9,6 14 8 18 10 S 1033,5 60 0 0,0
18.12.2017 05:00:00 3,8 2,2 0,1 6,4 9,6 9 5 16 8 S 1033,6 10 0 0,0
18.12.2017 04:00:00 1,5 0,2 -1,3 6,4 9,6 11 6 15 8 S 1034,3 10 0 0,0
18.12.2017 03:00:00 2,7 0,8 0,4 6,4 9,6 13 7 19 10 S 1033,5 10 0 0,0
18.12.2017 02:00:00 3,4 1,3 1,6 6,4 9,6 15 8 21 12 S 1033,7 10 0 0,0
18.12.2017 01:00:00 5,1 2,1 4,1 6,4 9,6 16 9 23 12 SSW 1034,3 60 0 0,0
18.12.2017 00:00:00 5,6 2,6 4,9 6,4 9,6 18 10 26 14 SSW 1034,2 10 0 0,0
17.12.2017 23:00:00 5,6 2,4 5,0 6,4 9,6 21 11 27 15 S 1034,2 60 0 0,0
17.12.2017 22:00:00 5,9 2,7 5,3 6,4 9,6 18 10 22 12 SSW 1034,2 60 0 0,0
17.12.2017 21:00:00 6,1 3,3 4,9 6,3 9,6 13 7 22 12 SW 1033,7 10 0 0,0
17.12.2017 20:00:00 6,0 2,8 4,4 6,3 9,7 14 7 36 20 WSW 1033,8 56 0 0,0
17.12.2017 19:00:00 5,5 1,8 4,4 6,2 9,7 11 6 18 10 SSW 1033,1 10 0 0,0
17.12.2017 18:00:00 6,4 1,9 5,2 6,1 9,6 11 6 26 14 SW 1032,6 10 0 0,0
17.12.2017 17:00:00 7,5 1,3 6,5 6,1 9,6 11 6 19 11 WSW 1032,0 10 0 0,0
17.12.2017 16:00:00 8,0 1,4 7,7 6,0 9,7 13 7 26 14 W 1031,5 10 0 0,0
17.12.2017 15:00:00 8,2 1,1 8,8 6,0 9,7 15 8 24 13 W 1031,1 10 0 0,0
17.12.2017 14:00:00 8,5 0,7 10,2 5,9 9,7 13 7 24 13 WSW 1031,1 10 0 0,0
17.12.2017 13:00:00 7,5 -0,2 8,9 6,0 9,7 11 6 22 12 SSW 1031,6 10 0 0,0
17.12.2017 12:00:00 6,7 -0,8 5,4 6,0 9,7 16 9 24 13 S 1032,4 60 27 0,0
17.12.2017 11:00:00 4,6 -1,4 2,3 6,0 9,6 16 9 22 12 S 1032,8 10 0 0,0
17.12.2017 10:00:00 2,6 -2,1 -0,2 6,1 9,7 16 9 23 12 S 1032,6 60 0 0,0
17.12.2017 09:00:00 1,6 -2,9 -1,1 6,2 9,6 10 6 15 8 SSE 1032,1 60 0 0,0
17.12.2017 08:00:00 1,0 -3,3 -2,3 6,3 9,7 9 5 16 8 SSE 1031,9 10 0 0,0
17.12.2017 07:00:00 0,7 -3,0 -3,5 6,4 9,7 11 6 22 12 SSW 1031,5 10 0 0,0
17.12.2017 06:00:00 -0,8 -4,0 -4,6 6,5 9,7 11 6 23 12 S 1031,2 10 0 0,0
17.12.2017 05:00:00 -0,3 -4,0 -4,3 6,5 9,7 18 10 23 13 S 1030,8 10 0 0,0
17.12.2017 04:00:00 -1,0 -3,4 -4,0 6,6 9,7 13 7 23 13 SSW 1031,1 60 0 0,0
17.12.2017 03:00:00 0,2 -1,2 -3,8 6,7 9,6 17 9 22 12 S 1030,4 53 0 0,0
17.12.2017 02:00:00 -0,6 -1,4 -4,1 6,8 9,7 9 5 16 9 S 1030,5 10 0 0,0
17.12.2017 01:00:00 0,8 -0,1 -3,4 6,9 9,7 6 4 10 6 S 1030,5 44 0 0,0
17.12.2017 00:00:00 0,7 -0,5 -2,8 6,9 9,7 7 4 14 8 S 1030,6 20 0 0,0
16.12.2017 23:00:00 0,6 -0,1 -3,1 7,0 9,7 6 3 20 11 S 1029,7 38 0 0,0
16.12.2017 22:00:00 1,4 -0,8 -1,4 7,1 9,7 8 4 20 11 SW 1029,1 47 0 0,0
16.12.2017 21:00:00 2,9 0,9 0,1 7,1 9,7 13 7 23 12 W 1028,4 43 0 0,0
16.12.2017 20:00:00 3,5 1,0 0,6 7,1 9,7 14 8 22 12 W 1027,4 46 0 0,0
16.12.2017 19:00:00 3,7 0,7 0,5 7,1 9,7 15 8 20 11 WSW 1026,5 43 0 0,0
16.12.2017 18:00:00 4,3 1,0 0,9 7,1 9,7 8 5 16 9 W 1025,4 60 0 0,0
16.12.2017 17:00:00 5,4 1,3 4,6 7,0 9,7 10 5 20 11 W 1024,5 60 0 0,0
16.12.2017 16:00:00 6,1 1,2 6,0 6,9 9,6 10 6 16 9 WNW 1023,5 60 0 0,0
16.12.2017 15:00:00 6,4 0,9 6,6 6,9 9,7 12 7 26 14 WNW 1022,9 60 1 0,0
16.12.2017 14:00:00 7,3 0,3 8,5 6,9 9,7 14 7 26 14 W 1022,3 60 15 0,0
16.12.2017 13:00:00 7,9 0,1 12,2 6,9 9,7 13 7 24 13 WNW 1022,1 10 57 0,0
16.12.2017 12:00:00 7,5 3,2 9,3 6,9 9,7 11 6 22 12 WSW 1021,9 60 53 0,0
16.12.2017 11:00:00 6,2 3,7 4,6 7,0 9,7 17 9 27 14 WNW 1021,7 52 60 0,0
16.12.2017 10:00:00 5,1 2,9 0,9 7,0 9,7 10 6 18 10 W 1021,1 48 49 0,0
16.12.2017 09:00:00 3,5 1,9 0,2 7,1 9,7 13 7 22 12 W 1020,4 60 0 0,0
16.12.2017 08:00:00 4,2 2,2 2,0 7,1 9,7 12 6 21 11 WSW 1019,4 60 0 0,0
16.12.2017 07:00:00 3,7 2,2 1,1 7,2 9,7 8 4 15 8 W 1018,5 10 0 0,0
16.12.2017 06:00:00 2,8 1,9 -0,1 7,2 9,7 8 4 14 8 S 1017,5 10 0 0,0
16.12.2017 05:00:00 3,6 1,6 1,7 7,3 9,7 9 5 30 16 SW 1017,0 10 0 0,0
16.12.2017 04:00:00 4,4 2,6 3,0 7,4 9,7 17 9 33 18 WSW 1016,6 59 0 0,0
16.12.2017 03:00:00 4,6 2,9 0,1 7,4 9,7 11 6 27 14 WSW 1016,2 17 0 0,4
16.12.2017 02:00:00 3,0 1,8 - - - 8 4 18 10 SW 1015,8 10 - 0,4
16.12.2017 01:00:00 3,2 1,7 1,6 7,5 9,7 8 4 36 20 SW 1015,8 10 0 3,0
16.12.2017 00:00:00 5,0 2,7 2,7 7,6 9,7 16 9 38 21 WSW 1014,9 17 0 0,2
15.12.2017 23:00:00 4,8 2,8 3,1 7,7 9,7 18 10 36 19 WSW 1014,3 10 0 1,0
15.12.2017 22:00:00 5,1 2,8 3,2 7,7 9,7 15 8 41 22 WSW 1013,6 10 0 1,0
15.12.2017 21:00:00 5,0 3,0 3,6 7,8 9,7 21 11 38 20 W 1013,3 20 0 2,0
15.12.2017 20:00:00 5,1 2,9 3,6 7,8 9,7 22 12 53 28 WSW 1012,4 10 0 0,0
15.12.2017 19:00:00 5,1 3,3 3,8 7,9 9,7 29 16 58 31 W 1012,0 2,6 0 2,2
15.12.2017 18:00:00 5,2 3,5 3,9 7,9 9,7 25 13 44 24 WSW 1011,3 56 0 4,3
15.12.2017 17:00:00 5,4 3,6 4,7 7,9 9,7 17 9 42 23 SW 1010,7 8 0 1,8
15.12.2017 16:00:00 5,5 3,3 4,8 7,9 9,7 23 13 48 26 WSW 1010,3 13 0 1,6
15.12.2017 15:00:00 6,6 3,2 5,8 7,9 9,7 21 11 45 25 WSW 1009,9 15 24 0,4
15.12.2017 14:00:00 6,6 3,9 4,7 7,9 9,7 23 12 52 28 SSW 1009,8 60 31 0,0
15.12.2017 13:00:00 7,6 3,4 6,2 7,9 9,7 27 14 41 22 WSW 1010,3 49 25 0,2
15.12.2017 12:00:00 7,0 4,0 6,5 8,0 9,7 16 9 33 18 SW 1011,1 20 13 0,2
15.12.2017 11:00:00 5,8 3,0 4,9 8,0 9,7 18 10 34 19 WSW 1011,8 60 0 0,0
15.12.2017 10:00:00 5,2 2,9 4,0 8,1 9,7 21 12 39 21 WSW 1011,2 60 0 0,4
15.12.2017 09:00:00 4,8 2,5 3,5 8,2 9,7 21 11 43 23 WSW 1011,0 19 0 1,0
15.12.2017 08:00:00 4,3 2,8 3,7 8,2 9,7 24 13 46 25 WSW 1011,0 10 0 2,9
15.12.2017 07:00:00 4,7 3,0 4,1 8,3 9,7 30 16 47 26 WNW 1011,0 3,4 0 4,0
15.12.2017 06:00:00 6,2 4,8 5,8 8,3 9,7 27 15 64 35 NW 1008,9 7 0 1,0
15.12.2017 05:00:00 9,2 4,4 6,2 8,4 9,7 24 13 45 24 W 1007,6 60 0 0,2
15.12.2017 04:00:00 8,8 5,0 5,9 8,3 9,7 24 13 53 29 W 1007,8 10 0 0,0
15.12.2017 03:00:00 8,7 5,3 5,7 8,4 9,7 22 12 64 35 W 1008,2 10 0 0,0
15.12.2017 02:00:00 9,1 6,2 7,1 8,4 9,7 29 16 51 27 W 1009,3 10 0 0,2
15.12.2017 01:00:00 9,6 6,3 7,9 8,3 9,7 28 15 46 25 W 1010,3 10 0 0,0
15.12.2017 00:00:00 9,1 7,0 7,7 8,3 9,7 29 16 56 31 WSW 1010,7 10 0 0,2
14.12.2017 23:00:00 9,3 6,7 7,9 8,3 9,7 39 21 74 40 W 1010,9 10 0 1,0
14.12.2017 22:00:00 9,8 8,6 9,1 8,3 9,7 24 13 49 27 W 1010,7 9 0 1,0
14.12.2017 21:00:00 10,1 8,9 8,6 8,3 9,7 21 11 41 22 W 1010,8 12 0 0,2
14.12.2017 20:00:00 9,5 8,3 6,9 8,3 9,7 13 7 22 12 W 1011,0 40 0 0,0
14.12.2017 19:00:00 9,0 7,4 7,0 8,2 9,7 12 7 26 14 SW 1011,2 56 0 0,0
14.12.2017 18:00:00 9,6 8,2 8,1 8,1 9,7 15 8 39 21 SW 1012,1 20 0 0,4
14.12.2017 17:00:00 10,4 8,7 9,7 8,0 9,7 22 12 36 19 W 1013,0 17 0 0,0
14.12.2017 16:00:00 11,6 7,9 11,9 8,0 9,7 16 9 37 20 W 1012,7 10 0 0,0
14.12.2017 15:00:00 12,7 7,6 13,4 7,9 9,7 27 14 44 24 WNW 1012,2 56 4 0,0
14.12.2017 14:00:00 13,2 6,5 14,2 7,8 9,7 18 10 38 21 W 1012,9 10 36 0,0
14.12.2017 13:00:00 13,3 6,4 16,1 7,8 9,7 26 14 44 24 W 1013,2 47 60 0,0
14.12.2017 12:00:00 12,9 6,2 9,5 7,8 9,7 14 8 35 19 WSW 1014,6 58 23 0,0
14.12.2017 11:00:00 9,8 6,3 8,4 7,8 9,7 15 8 29 16 SSW 1016,8 10 0 0,0
14.12.2017 10:00:00 9,2 6,5 7,7 7,7 9,7 16 9 34 18 SSW 1017,1 60 0 0,6
14.12.2017 09:00:00 9,2 6,1 7,6 7,7 9,7 26 14 41 22 SSW 1017,3 10 0 0,4
14.12.2017 08:00:00 9,2 6,5 7,8 7,6 9,7 11 6 29 16 WSW 1018,1 10 0 0,6
14.12.2017 07:00:00 10,0 7,2 8,5 7,6 9,7 24 13 43 23 WSW 1017,4 31 0 0,9
14.12.2017 06:00:00 9,8 8,4 8,9 7,5 9,7 - - 38 20 - 1017,6 10 0 2,6
14.12.2017 05:00:00 10,0 8,6 9,0 7,5 9,7 21 11 36 19 WSW 1017,3 10 0 2,0
14.12.2017 04:00:00 9,7 8,5 8,7 7,4 9,7 11 6 15 8 WSW 1017,4 12 0 0,4
14.12.2017 03:00:00 10,0 8,3 8,5 7,4 9,8 8 4 22 12 W 1017,4 10 0 0,6
14.12.2017 02:00:00 10,6 8,7 9,2 7,2 9,7 13 7 34 18 W 1017,4 60 0 0,0
14.12.2017 01:00:00 11,1 9,0 9,7 7,1 9,7 22 12 55 30 W 1017,6 60 0 0,2
14.12.2017 00:00:00 13,2 8,3 10,5 7,1 9,8 34 18 61 33 W 1017,0 10 0 0,0
13.12.2017 23:00:00 12,8 9,1 10,9 7,0 9,7 36 19 62 33 W 1016,6 19 0 0,0
13.12.2017 22:00:00 14,1 7,8 11,8 6,9 9,7 24 13 54 29 WSW 1016,2 60 0 0,0
13.12.2017 21:00:00 14,4 7,0 10,6 6,8 9,7 19 10 49 27 W 1016,5 60 0 0,0
13.12.2017 20:00:00 13,7 6,1 9,1 6,7 9,7 20 11 54 29 W 1016,4 60 0 0,0
13.12.2017 19:00:00 13,6 3,6 9,2 6,6 9,7 22 12 36 20 W 1015,9 60 0 0,0
13.12.2017 18:00:00 12,2 2,3 9,5 6,5 9,7 15 8 26 14 WSW 1016,1 10 0 0,0
13.12.2017 17:00:00 11,8 3,5 10,7 6,4 9,7 15 8 26 14 SW 1016,7 10 15 0,0
13.12.2017 16:00:00 12,5 3,7 12,5 6,2 9,7 15 8 33 18 WSW 1017,1 10 0 0,0
13.12.2017 15:00:00 13,1 5,3 14,0 6,2 9,7 21 11 36 19 W 1017,0 10 14 0,0
13.12.2017 14:00:00 13,2 5,6 12,0 6,1 9,8 22 12 42 23 WSW 1017,7 60 5 0,0
13.12.2017 13:00:00 12,1 5,7 12,1 6,1 9,8 21 11 52 28 W 1018,5 48 0 0,0
13.12.2017 12:00:00 10,8 4,5 10,0 6,1 9,7 14 7 23 13 WSW 1019,9 60 0 0,0
13.12.2017 11:00:00 9,2 -0,4 6,3 6,2 9,7 13 7 21 12 WSW 1021,0 60 0 0,0
13.12.2017 10:00:00 6,2 -1,0 3,2 6,3 9,8 13 7 22 12 SSW 1021,0 60 0 0,0
13.12.2017 09:00:00 5,4 -3,4 0,5 6,4 9,7 10 5 24 13 S 1021,1 60 0 0,0
13.12.2017 08:00:00 2,9 -4,8 -2,7 6,4 9,7 12 7 16 9 S 1021,4 60 0 0,0
13.12.2017 07:00:00 1,3 -5,4 -3,7 6,5 9,7 12 7 17 9 S 1022,1 60 0 0,0
13.12.2017 06:00:00 1,2 -5,9 -3,4 6,6 9,7 10 5 18 10 SSE 1022,3 60 0 0,0
13.12.2017 05:00:00 0,0 -5,4 -3,5 6,7 9,7 11 6 19 10 SSE 1022,7 10 0 0,0
13.12.2017 04:00:00 1,5 -6,1 -3,7 6,8 9,7 11 6 18 10 SSE 1022,6 10 0 0,0
13.12.2017 03:00:00 1,4 -5,7 -2,9 6,9 9,7 11 6 18 10 SSE 1022,4 60 0 0,0
13.12.2017 02:00:00 1,3 -5,8 -3,7 7,0 9,7 11 6 20 11 SSE 1023,5 60 0 0,0
13.12.2017 01:00:00 1,6 -5,6 -3,0 7,1 9,7 11 6 19 10 SSE 1023,5 60 0 0,0
13.12.2017 00:00:00 0,9 -4,9 -3,6 7,2 9,7 9 5 19 11 S 1023,9 60 0 0,0
12.12.2017 23:00:00 1,5 -5,0 -3,8 7,3 9,7 13 7 19 10 SSE 1023,6 60 0 0,0
12.12.2017 22:00:00 1,6 -4,5 -4,7 7,4 9,7 9 5 13 7 SSE 1023,0 60 0 0,0
12.12.2017 21:00:00 0,8 -3,7 -3,4 7,4 9,7 9 5 18 10 SSE 1022,3 60 0 0,0

tt = Température de l'air
td = dewpoint
tt 5cm = Température de l'air 5cm
tt -20cm = Température de l'air -20cm
tt -100cm = Température de l'air -100cm
ff = Vitesse du vent
fx = gusts
dd = Direction du vent
ppp = reduced air pressure
vv = visibility
sd = Ensoleillement
rr = Quantités de précipitations

stations d'obs. à proximité